| time (UTC) | temp C | wind direction | speed KPH | gust KPH | rain 1hr cm | rain 24hr cm | rain mn cm | humidity % | barometer mb |
| 20260905233046 | 17 | 70 | 0.0 | 0.0 | 0.00 | 0.00 | 0.00 | 94 | 1011.2 |
| 20260905231544 | 17 | 70 | 0.0 | 0.0 | 0.00 | 0.00 | 0.00 | 94 | 1011.1 |
| 20260905230044 | 17 | 70 | 0.0 | 0.0 | 0.00 | 0.00 | 0.00 | 94 | 1011.1 |
| 20260905224543 | 17 | 70 | 0.0 | 0.0 | 0.00 | 0.00 | 0.00 | 94 | 1011.0 |
| 20260905223045 | 17 | 70 | 0.0 | 1.6 | 0.00 | 0.00 | 0.00 | 94 | 1011.0 |
| 20260905221536 | 17 | 70 | 0.0 | 1.6 | 0.00 | 0.00 | 0.00 | 94 | 1011.2 |
| 20260905220033 | 18 | 70 | 0.0 | 0.0 | 0.00 | 0.00 | 0.00 | 95 | 1011.2 |
| 20260905214531 | 19 | 70 | 0.0 | 1.6 | 0.00 | 0.00 | 0.00 | 95 | 1011.4 |
| 20260905213027 | 18 | 70 | 0.0 | 1.6 | 0.00 | 0.00 | 0.00 | 95 | 1011.7 |
| 20260905211526 | 18 | 70 | 0.0 | 1.6 | 0.00 | 0.00 | 0.00 | 94 | 1011.8 |
| 20260905210038 | 18 | 70 | 0.0 | 0.0 | 0.00 | 0.00 | 0.00 | 94 | 1011.9 |
| 20260905204530 | 18 | 70 | 0.0 | 1.6 | 0.00 | 0.00 | 0.00 | 94 | 1011.7 |
| 20260905203023 | 18 | 70 | 0.0 | 0.0 | 0.00 | 0.00 | 0.00 | 93 | 1011.7 |
| 20260905201520 | 18 | 70 | 0.0 | 0.0 | 0.00 | 0.00 | 0.00 | 93 | 1011.7 |
| 20260905200024 | 18 | 70 | 0.0 | 0.0 | 0.00 | 0.00 | 0.00 | 93 | 1011.5 |
| 20260905194519 | 19 | 70 | 0.0 | 0.0 | 0.00 | 0.00 | 0.00 | 93 | 1011.5 |
| 20260905193022 | 19 | 70 | 0.0 | 0.0 | 0.00 | 0.00 | 0.00 | 93 | 1011.5 |
| 20260905191521 | 19 | 70 | 0.0 | 0.0 | 0.00 | 0.00 | 0.00 | 93 | 1011.5 |
| 20260905190020 | 20 | 70 | 0.0 | 0.0 | 0.00 | 0.00 | 0.00 | 93 | 1011.4 |
| 20260905184520 | 20 | 70 | 0.0 | 1.6 | 0.00 | 0.00 | 0.00 | 93 | 1011.5 |
| 20260905183016 | 20 | 70 | 0.0 | 3.2 | 0.00 | 0.00 | 0.00 | 93 | 1011.5 |
| 20260905181520 | 20 | 344 | 0.0 | 1.6 | 0.00 | 0.00 | 0.00 | 93 | 1011.5 |
| 20260905180015 | 20 | 327 | 0.0 | 1.6 | 0.00 | 0.00 | 0.00 | 92 | 1011.5 |
| 20260905174520 | 20 | 322 | 0.0 | 0.0 | 0.00 | 0.00 | 0.00 | 92 | 1011.7 |
| 20260905173013 | 20 | 322 | 0.0 | 1.6 | 0.00 | 0.00 | 0.00 | 91 | 1011.6 |
| 20260905171524 | 21 | 321 | 0.0 | 0.0 | 0.00 | 0.00 | 0.00 | 91 | 1011.4 |
| 20260905170014 | 21 | 321 | 0.0 | 1.6 | 0.00 | 0.00 | 0.00 | 90 | 1011.2 |
| 20260905164511 | 21 | 321 | 0.0 | 0.0 | 0.00 | 0.00 | 0.00 | 89 | 1011.0 |
| 20260905163010 | 21 | 321 | 0.0 | 0.0 | 0.00 | 0.00 | 0.00 | 89 | 1010.9 |
| 20260905161511 | 21 | 321 | 0.0 | 3.2 | 0.00 | 0.00 | 0.00 | 87 | 1010.8 |
| 20260905160010 | 22 | 324 | 0.0 | 1.6 | 0.00 | 0.00 | 0.00 | 86 | 1010.9 |
| 20260905154509 | 22 | 261 | 0.0 | 1.6 | 0.00 | 0.00 | 0.00 | 84 | 1010.8 |
| 20260905153010 | 23 | 278 | 0.0 | 4.8 | 0.00 | 0.00 | 0.00 | 82 | 1010.7 |
| 20260905151508 | 23 | 267 | 0.0 | 8.0 | 0.00 | 0.00 | 0.00 | 81 | 1010.7 |
| 20260905150007 | 23 | 326 | 0.0 | 6.4 | 0.00 | 0.00 | 0.00 | 81 | 1010.7 |
| 20260905144505 | 23 | 250 | 0.0 | 8.0 | 0.00 | 0.00 | 0.00 | 81 | 1010.6 |
| 20260905143005 | 23 | 305 | 3.2 | 11.3 | 0.00 | 0.00 | 0.00 | 79 | 1010.7 |
| 20260905141505 | 24 | 230 | 1.6 | 9.7 | 0.00 | 0.00 | 0.00 | 76 | 1010.7 |
| 20260905140003 | 24 | 255 | 1.6 | 9.7 | 0.00 | 0.00 | 0.00 | 77 | 1010.6 |
| 20260905134501 | 24 | 332 | 0.0 | 6.4 | 0.00 | 0.00 | 0.00 | 77 | 1010.7 |
| 20260905133003 | 23 | 288 | 1.6 | 14.5 | 0.00 | 0.00 | 0.00 | 78 | 1010.8 |
| 20260905131600 | 24 | 283 | 4.8 | 16.1 | 0.00 | 0.00 | 0.00 | 79 | 1010.9 |
| 20260905130058 | 23 | 235 | 1.6 | 17.7 | 0.00 | 0.00 | 0.00 | 81 | 1010.8 |
| 20260905124558 | 23 | 281 | 0.0 | 9.7 | 0.00 | 0.00 | 0.00 | 82 | 1010.9 |
| 20260905123059 | 23 | 263 | 3.2 | 12.9 | 0.00 | 0.00 | 0.00 | 80 | 1010.9 |
| 20260905121555 | 23 | 313 | 0.0 | 14.5 | 0.00 | 0.00 | 0.00 | 82 | 1010.9 |
| 20260905120056 | 23 | 301 | 4.8 | 14.5 | 0.00 | 0.00 | 0.00 | 80 | 1011.0 |
| 20260905114605 | 23 | 329 | 3.2 | 11.3 | 0.00 | 0.00 | 0.00 | 82 | 1011.1 |
| 20260905113053 | 22 | 245 | 4.8 | 12.9 | 0.00 | 0.00 | 0.00 | 82 | 1011.2 |
| 20260905111623 | 22 | 335 | 1.6 | 14.5 | 0.00 | 0.00 | 0.00 | 83 | 1011.2 |
| 20260905110101 | 22 | 291 | 3.2 | 17.7 | 0.00 | 0.00 | 0.00 | 84 | 1011.3 |
| 20260905104610 | 23 | 276 | 3.2 | 14.5 | 0.00 | 0.00 | 0.00 | 82 | 1011.3 |
| 20260905103051 | 23 | 267 | 3.2 | 14.5 | 0.00 | 0.00 | 0.00 | 82 | 1011.3 |
| 20260905101650 | 23 | 250 | 3.2 | 16.1 | 0.00 | 0.00 | 0.00 | 80 | 1011.2 |
| 20260905100049 | 22 | 311 | 3.2 | 14.5 | 0.00 | 0.00 | 0.00 | 81 | 1011.2 |
| 20260905094652 | 22 | 271 | 3.2 | 11.3 | 0.00 | 0.00 | 0.00 | 80 | 1011.3 |
| 20260905093052 | 22 | 280 | 4.8 | 14.5 | 0.00 | 0.00 | 0.00 | 82 | 1011.2 |
| 20260905091549 | 22 | 311 | 6.4 | 16.1 | 0.00 | 0.00 | 0.00 | 81 | 1011.2 |
| 20260905090046 | 22 | 323 | 4.8 | 16.1 | 0.00 | 0.00 | 0.00 | 80 | 1011.2 |
| 20260905084557 | 23 | 263 | 4.8 | 16.1 | 0.00 | 0.00 | 0.00 | 77 | 1011.2 |
| 20260905083043 | 23 | 313 | 6.4 | 16.1 | 0.00 | 0.00 | 0.00 | 75 | 1011.1 |
| 20260905081543 | 23 | 267 | 4.8 | 11.3 | 0.00 | 0.00 | 0.00 | 73 | 1011.1 |
| 20260905080044 | 23 | 240 | 3.2 | 14.5 | 0.00 | 0.00 | 0.00 | 71 | 1011.1 |
| 20260905074541 | 23 | 294 | 4.8 | 9.7 | 0.00 | 0.00 | 0.00 | 69 | 1011.2 |
| 20260905073037 | 23 | 327 | 3.2 | 8.0 | 0.00 | 0.00 | 0.00 | 71 | 1011.3 |
| 20260905071544 | 22 | 278 | 3.2 | 9.7 | 0.00 | 0.00 | 0.00 | 71 | 1011.3 |
| 20260905070035 | 22 | 289 | 1.6 | 8.0 | 0.00 | 0.00 | 0.00 | 70 | 1011.1 |
| 20260905064534 | 22 | 322 | 1.6 | 6.4 | 0.00 | 0.00 | 0.00 | 67 | 1011.1 |
| 20260905063033 | 22 | 298 | 0.0 | 3.2 | 0.00 | 0.00 | 0.00 | 68 | 1011.1 |
| 20260905061551 | 23 | 307 | 0.0 | 1.6 | 0.00 | 0.00 | 0.00 | 64 | 1011.0 |
| 20260905060049 | 23 | 105 | 0.0 | 0.0 | 0.00 | 0.00 | 0.00 | 57 | 1011.0 |
| 20260905054535 | 22 | 105 | 0.0 | 4.8 | 0.00 | 0.00 | 0.00 | 51 | 1010.9 |
| 20260905053024 | 21 | 95 | 0.0 | 0.0 | 0.00 | 0.00 | 0.00 | 51 | 1011.0 |
| 20260905051529 | 21 | 95 | 0.0 | 0.0 | 0.00 | 0.00 | 0.00 | 54 | 1010.8 |
| 20260905050016 | 20 | 95 | 0.0 | 0.0 | 0.00 | 0.00 | 0.00 | 57 | 1010.8 |
| 20260905044515 | 18 | 95 | 0.0 | 0.0 | 0.00 | 0.00 | 0.00 | 64 | 1010.7 |
| 20260905043018 | 17 | 95 | 0.0 | 1.6 | 0.00 | 0.00 | 0.00 | 72 | 1010.5 |
| 20260905041513 | 16 | 95 | 0.0 | 1.6 | 0.00 | 0.00 | 0.00 | 80 | 1010.4 |
| 20260905040010 | 15 | 95 | 0.0 | 1.6 | 0.00 | 0.00 | 0.00 | 87 | 1010.3 |
| 20260905034507 | 16 | 93 | 0.0 | 1.6 | 0.00 | 0.00 | 0.00 | 91 | 1010.2 |
| 20260905033003 | 17 | 93 | 0.0 | 1.6 | 0.00 | 0.00 | 0.00 | 92 | 1010.2 |
| 20260905031506 | 17 | 93 | 0.0 | 0.0 | 0.00 | 0.00 | 0.00 | 93 | 1010.1 |
| 20260905030002 | 17 | 93 | 0.0 | 0.0 | 0.00 | 0.00 | 0.00 | 92 | 1009.9 |
| 20260905024503 | 17 | 93 | 0.0 | 0.0 | 0.00 | 0.00 | 0.00 | 92 | 1009.9 |
| 20260905023100 | 17 | 93 | 0.0 | 0.0 | 0.00 | 0.00 | 0.00 | 91 | 1009.9 |
| 20260905021606 | 17 | 93 | 0.0 | 0.0 | 0.00 | 0.00 | 0.00 | 90 | 1009.8 |
| 20260905020056 | 17 | 93 | 0.0 | 1.6 | 0.00 | 0.00 | 0.00 | 91 | 1009.8 |
| 20260905014554 | 18 | 93 | 0.0 | 0.0 | 0.00 | 0.00 | 0.00 | 89 | 1009.7 |
| 20260905013113 | 18 | 93 | 0.0 | 0.0 | 0.00 | 0.00 | 0.00 | 88 | 1009.8 |
| 20260905011550 | 18 | 93 | 0.0 | 0.0 | 0.00 | 0.00 | 0.00 | 86 | 1009.8 |
| 20260905010054 | 18 | 93 | 0.0 | 0.0 | 0.00 | 0.00 | 0.00 | 84 | 1009.8 |
| 20260905004545 | 19 | 93 | 0.0 | 0.0 | 0.00 | 0.00 | 0.00 | 81 | 1009.9 |
| 20260905003042 | 19 | 93 | 0.0 | 0.0 | 0.00 | 0.00 | 0.00 | 73 | 1009.9 |
| 20260905001539 | 19 | 93 | 0.0 | 3.2 | 0.00 | 0.00 | 0.00 | 60 | 1010.0 |
| 20260905000038 | 19 | 101 | 0.0 | 1.6 | 0.00 | 0.00 | 0.00 | 56 | 1009.9 |
| 20260904234541 | 19 | 101 | 0.0 | 0.0 | 0.00 | 0.00 | 0.00 | 57 | 1009.9 |